Flag for United Kingdom Weather past 2 weeks in Poole, England, United Kingdom

Now
63 °F

Passing clouds.


Feels Like: 63 °F
Forecast: 54 / 69 °F
Wind: 14 mph from West

Location: Bournemouth Airport

Current Time: Aug 30, 2014 at 3:36:50 AM

Latest Report: Aug 30, 2014 at 3:20 AM


Visibility: N/A

Pressure: 29.95 "Hg

Humidity: 83%

Dew point: 57 °F

Location of PooleLocation

Historic Weather in Poole — Graph

°F

Poole temperature yesterday

Maximum temperature yesterday: 68 °F (at 12:20 PM)
Minimum temperature yesterday: 59 °F (at 1:20 AM)
Average temperature yesterday: 63 °F

Past Weeks' High & Low Weather Summary

 TemperatureHumidityPressure
High70 °F (Aug 15, 6:20 PM)100% (Aug 16, 4:50 AM)30.21 "Hg (Aug 16, 4:50 AM)
Low37 °F (Aug 20, 4:50 AM)33% (Aug 20, 3:20 PM)29.53 "Hg (Aug 26, 4:50 AM)
Average59 °F75%29.93 "Hg
* Reported Aug 15 2:20 AM — Aug 30 2:20 AM, Poole, Weather by CustomWeather, © 2014

Note: Actual official high and low records may vary slightly from our data, if they occured in-between our weather recording intervals... More about our weather records

Advertising

Poole weather history for previous 24 hours

 ConditionsComfort  
Time TempWeatherWind HumidityBarometerVisibility
2:20 AM
Aug 30
63 °FPassing clouds.16 mph83%29.95 "HgN/A
1:50 AM63 °FPassing clouds.16 mph83%29.95 "HgN/A
1:20 AM63 °FPassing clouds.14 mph83%29.98 "HgN/A
12:50 AM63 °FPassing clouds.15 mph83%29.98 "HgN/A
11:20 PM
Aug 29
63 °FPassing clouds.16 mph83%29.98 "HgN/A
10:50 PM63 °FPartly cloudy.14 mph83%29.98 "HgN/A
10:20 PM63 °FPassing clouds.17 mph83%29.98 "HgN/A
8:20 PM63 °FScattered clouds.18 mph83%29.95 "HgN/A
7:50 PM63 °FScattered clouds.16 mph83%29.95 "HgN/A
7:20 PM63 °FPartly sunny.17 mph88%29.95 "HgN/A
6:50 PM63 °FPartly sunny.16 mph83%29.95 "HgN/A
6:20 PM64 °FScattered clouds.16 mph78%29.95 "HgN/A
5:50 PM64 °FScattered clouds.17 mph78%29.95 "HgN/A
5:20 PM64 °FPartly sunny.17 mph78%29.95 "HgN/A
4:50 PM64 °FPartly sunny.18 mph78%29.95 "HgN/A
4:20 PM64 °FPartly sunny.18 mph78%29.95 "HgN/A
3:50 PM64 °FPartly sunny.20 mph78%29.95 "HgN/A
3:20 PM64 °FBroken clouds.17 mph78%29.95 "HgN/A
2:50 PM66 °FBroken clouds.16 mph73%29.95 "HgN/A
2:20 PM64 °FBroken clouds.18 mph78%29.95 "HgN/A
1:50 PM66 °FPartly sunny.18 mph73%29.95 "HgN/A
1:20 PM66 °FPartly sunny.17 mph68%29.95 "HgN/A
12:50 PM64 °FScattered clouds.20 mph73%29.95 "HgN/A
12:20 PM68 °FScattered clouds.17 mph64%29.95 "HgN/A
11:50 AM66 °FScattered clouds.20 mph64%29.95 "HgN/A
11:20 AM66 °FScattered clouds.17 mph68%29.95 "HgN/A
10:50 AM64 °FScattered clouds.15 mph73%29.95 "HgN/A
10:20 AM64 °FScattered clouds.15 mph73%29.95 "HgN/A
9:50 AM63 °FScattered clouds.14 mph83%29.92 "HgN/A
9:20 AM61 °FScattered showers. Scattered clouds.12 mph88%29.92 "HgN/A
8:50 AM61 °FScattered showers. Scattered clouds.8 mph83%29.92 "HgN/A
7:50 AM61 °FRain. Fog.10 mph88%29.92 "Hg3 mi
7:20 AM61 °FScattered clouds.8 mph88%29.92 "HgN/A
6:50 AM59 °FPassing clouds.7 mph94%29.92 "HgN/A
6:20 AM59 °FPassing clouds.8 mph88%29.92 "HgN/A
5:50 AM59 °FPassing clouds.8 mph88%29.92 "HgN/A
5:20 AM59 °FClear.9 mph88%29.92 "Hg10 mi
4:50 AM59 °FPassing clouds.10 mph88%29.89 "HgN/A
Weather by CustomWeather, © 2014

See weather overviewHow to use our weather pages